EUTELSAT 3B

Last updated on Wed Nov 05 2025 00:02:48 GMT+0000 (Coordinated Universal Time)

1 39773U 14030A 25308.25106428 .00000033 00000+0 00000+0 0 9997 2 39773 0.0768 31.9030 0004649 184.6237 280.7024 1.00271176 41814
UTC large
Height (km)
Speed (km/s)
/
Latitude / Longitude
Inclination (degrees)
Orbital Period (minutes)
Azimuth
Elevation
Range (km)
Doppler Factor

Next 0 passes for location: London (51.5072 / 0.1276)

Sorry there are no passes over London.